Time,TemperatureF,DewpointF,PressureIn,WindDirection,WindDirectionDegrees,WindSpeedMPH,WindSpeedGustMPH,Humidity,HourlyPrecipIn,Conditions,Clouds,dailyrainin,SolarRadiationWatts/m^2,SoftwareType,DateUTC
2013-06-15 00:12:00,67.0,66.0,-100.00,SE,139,4.0,11.0,95,0.01,,,0.25,0.000000,,2013-06-15 05:12:00,
2013-06-15 00:22:00,67.0,66.0,-100.00,SE,139,4.0,11.0,95,0.01,,,0.25,0.000000,,2013-06-15 05:22:00,
2013-06-15 00:34:00,67.0,66.0,-100.00,SE,139,4.0,11.0,95,0.01,,,0.25,0.000000,,2013-06-15 05:34:00,
2013-06-15 00:42:00,67.0,66.0,-100.00,SE,139,4.0,11.0,95,0.01,,,0.25,0.000000,,2013-06-15 05:42:00,
2013-06-15 01:12:00,67.0,66.0,-100.00,ESE,116,5.0,18.0,96,0.00,,,0.25,0.000000,,2013-06-15 06:12:00,
2013-06-15 01:24:00,67.0,66.0,-100.00,ESE,116,5.0,18.0,96,0.00,,,0.25,0.000000,,2013-06-15 06:24:00,
2013-06-15 01:33:00,67.0,66.0,-100.00,ESE,116,5.0,18.0,96,0.00,,,0.25,0.000000,,2013-06-15 06:33:00,
2013-06-15 01:43:00,67.0,66.0,-100.00,ESE,116,5.0,18.0,96,0.00,,,0.25,0.000000,,2013-06-15 06:43:00,
2013-06-15 02:11:00,67.0,65.0,-100.00,SE,132,4.0,12.0,94,0.00,,,0.25,0.000000,,2013-06-15 07:11:00,
2013-06-15 02:23:00,67.0,65.0,-100.00,SE,132,4.0,12.0,94,0.00,,,0.25,0.000000,,2013-06-15 07:23:00,
2013-06-15 02:33:00,67.0,65.0,-100.00,SE,132,4.0,12.0,94,0.00,,,0.25,0.000000,,2013-06-15 07:33:00,
2013-06-15 02:43:00,67.0,65.0,-100.00,SE,132,4.0,12.0,94,0.00,,,0.25,0.000000,,2013-06-15 07:43:00,
2013-06-15 03:11:00,66.0,65.0,-100.00,ESE,116,2.0,10.0,96,0.00,,,0.25,0.000000,,2013-06-15 08:11:00,
2013-06-15 03:22:00,66.0,65.0,-100.00,ESE,116,2.0,10.0,96,0.00,,,0.25,0.000000,,2013-06-15 08:22:00,
2013-06-15 03:33:00,66.0,65.0,-100.00,ESE,116,2.0,10.0,96,0.00,,,0.25,0.000000,,2013-06-15 08:33:00,
2013-06-15 03:42:00,66.0,65.0,-100.00,ESE,116,2.0,10.0,96,0.00,,,0.25,0.000000,,2013-06-15 08:42:00,
2013-06-15 04:12:00,65.0,65.0,-100.00,NW,318,0.0,3.0,100,0.00,,,0.25,0.000000,,2013-06-15 09:12:00,
2013-06-15 04:22:00,65.0,65.0,-100.00,NW,318,0.0,3.0,100,0.00,,,0.25,0.000000,,2013-06-15 09:22:00,
2013-06-15 04:33:00,65.0,65.0,-100.00,NW,318,0.0,3.0,100,0.00,,,0.25,0.000000,,2013-06-15 09:33:00,
2013-06-15 04:43:00,65.0,65.0,-100.00,NW,318,0.0,3.0,100,0.00,,,0.25,0.000000,,2013-06-15 09:43:00,
2013-06-15 05:11:00,63.0,63.0,-100.00,NE,34,2.0,4.0,100,0.00,,,0.25,0.000000,,2013-06-15 10:11:00,
2013-06-15 05:23:00,63.0,63.0,-100.00,NE,34,2.0,4.0,100,0.00,,,0.25,0.000000,,2013-06-15 10:23:00,
2013-06-15 05:33:00,63.0,63.0,-100.00,NE,34,2.0,4.0,100,0.00,,,0.25,0.000000,,2013-06-15 10:33:00,
2013-06-15 05:43:00,63.0,63.0,-100.00,NE,34,2.0,4.0,100,0.00,,,0.25,0.000000,,2013-06-15 10:43:00,
2013-06-15 06:11:00,65.0,65.0,-100.00,SSE,154,2.0,7.0,100,0.00,,,0.25,0.000000,,2013-06-15 11:11:00,
2013-06-15 06:22:00,65.0,65.0,-100.00,SSE,154,2.0,7.0,100,0.00,,,0.25,0.000000,,2013-06-15 11:22:00,
2013-06-15 06:33:00,65.0,65.0,-100.00,SSE,154,2.0,7.0,100,0.00,,,0.25,0.000000,,2013-06-15 11:33:00,
2013-06-15 06:43:00,65.0,65.0,-100.00,SSE,154,2.0,7.0,100,0.00,,,0.25,0.000000,,2013-06-15 11:43:00,
2013-06-15 07:11:00,66.0,66.0,-100.00,SE,132,0.0,5.0,100,0.00,,,0.25,22.000000,,2013-06-15 12:11:00,
2013-06-15 07:22:00,66.0,66.0,-100.00,SE,132,0.0,5.0,100,0.00,,,0.25,22.000000,,2013-06-15 12:22:00,
2013-06-15 07:33:00,66.0,66.0,-100.00,SE,132,0.0,5.0,100,0.00,,,0.25,22.000000,,2013-06-15 12:33:00,
2013-06-15 07:43:00,66.0,66.0,-100.00,SE,132,0.0,5.0,100,0.00,,,0.25,22.000000,,2013-06-15 12:43:00,
2013-06-15 08:11:00,72.0,69.0,-100.00,SSE,162,3.0,7.0,90,0.00,,,0.25,142.000000,,2013-06-15 13:11:00,
2013-06-15 08:22:00,72.0,69.0,-100.00,SSE,162,3.0,7.0,90,0.00,,,0.25,142.000000,,2013-06-15 13:22:00,
2013-06-15 08:32:00,72.0,69.0,-100.00,SSE,162,3.0,7.0,90,0.00,,,0.25,142.000000,,2013-06-15 13:32:00,
2013-06-15 08:43:00,72.0,69.0,-100.00,SSE,162,3.0,7.0,90,0.00,,,0.25,142.000000,,2013-06-15 13:43:00,
2013-06-15 09:12:00,74.0,70.0,-100.00,South,178,6.0,11.0,87,0.00,,,-99.99,195.000000,,2013-06-15 14:12:00,
2013-06-15 09:22:00,74.0,70.0,-100.00,South,178,6.0,11.0,87,0.00,,,-99.99,195.000000,,2013-06-15 14:22:00,
2013-06-15 09:34:00,74.0,70.0,-100.00,South,178,6.0,11.0,87,0.00,,,-99.99,195.000000,,2013-06-15 14:34:00,
2013-06-15 09:43:00,74.0,70.0,-100.00,South,178,6.0,11.0,87,0.00,,,-99.99,195.000000,,2013-06-15 14:43:00,
2013-06-15 10:11:00,77.0,64.0,-100.00,West,274,6.0,14.0,65,0.00,,,0.25,196.000000,,2013-06-15 15:11:00,
2013-06-15 10:22:00,77.0,64.0,-100.00,West,274,6.0,14.0,65,0.00,,,0.25,196.000000,,2013-06-15 15:22:00,
2013-06-15 10:33:00,77.0,64.0,-100.00,West,274,6.0,14.0,65,0.00,,,0.25,196.000000,,2013-06-15 15:33:00,
2013-06-15 10:43:00,77.0,64.0,-100.00,West,274,6.0,14.0,65,0.00,,,0.25,196.000000,,2013-06-15 15:43:00,
2013-06-15 11:11:00,73.0,69.0,-100.00,NW,315,7.0,28.0,87,0.04,,,0.29,195.000000,,2013-06-15 16:11:00,
2013-06-15 11:22:00,73.0,69.0,-100.00,NW,315,7.0,28.0,87,0.04,,,0.29,195.000000,,2013-06-15 16:22:00,
2013-06-15 11:33:00,73.0,69.0,-100.00,NW,315,7.0,28.0,87,0.04,,,0.29,195.000000,,2013-06-15 16:33:00,
2013-06-15 11:43:00,73.0,69.0,-100.00,NW,315,7.0,28.0,87,0.04,,,0.29,195.000000,,2013-06-15 16:43:00,
2013-06-15 12:12:00,74.0,68.0,-100.00,NE,42,4.0,18.0,82,0.00,,,0.29,351.000000,,2013-06-15 17:12:00,
2013-06-15 12:21:00,74.0,68.0,-100.00,NE,42,4.0,18.0,82,0.00,,,0.29,351.000000,,2013-06-15 17:21:00,
2013-06-15 12:32:00,74.0,68.0,-100.00,NE,42,4.0,18.0,82,0.00,,,0.29,351.000000,,2013-06-15 17:32:00,
2013-06-15 12:43:00,74.0,68.0,-100.00,NE,42,4.0,18.0,82,0.00,,,0.29,351.000000,,2013-06-15 17:43:00,
2013-06-15 13:12:00,75.0,69.0,-100.00,SE,131,3.0,8.0,81,0.00,,,0.29,297.000000,,2013-06-15 18:12:00,
2013-06-15 13:22:00,75.0,69.0,-100.00,SE,131,3.0,8.0,81,0.00,,,0.29,297.000000,,2013-06-15 18:22:00,
2013-06-15 13:32:00,75.0,69.0,-100.00,SE,131,3.0,8.0,81,0.00,,,0.29,297.000000,,2013-06-15 18:32:00,
2013-06-15 13:43:00,75.0,69.0,-100.00,SE,131,3.0,8.0,81,0.00,,,0.29,297.000000,,2013-06-15 18:43:00,
2013-06-15 14:11:00,79.0,70.0,-100.00,South,177,4.0,9.0,75,0.00,,,0.29,493.000000,,2013-06-15 19:11:00,
2013-06-15 14:22:00,79.0,70.0,-100.00,South,177,4.0,9.0,75,0.00,,,0.29,493.000000,,2013-06-15 19:22:00,
2013-06-15 14:33:00,79.0,70.0,-100.00,South,177,4.0,9.0,75,0.00,,,0.29,493.000000,,2013-06-15 19:33:00,
2013-06-15 14:43:00,79.0,70.0,-100.00,South,177,4.0,9.0,75,0.00,,,0.29,493.000000,,2013-06-15 19:43:00,
2013-06-15 15:11:00,82.0,71.0,-100.00,South,184,5.0,9.0,70,0.00,,,0.29,599.000000,,2013-06-15 20:11:00,
2013-06-15 15:22:00,82.0,71.0,-100.00,South,184,5.0,9.0,70,0.00,,,0.29,599.000000,,2013-06-15 20:22:00,
2013-06-15 15:33:00,82.0,71.0,-100.00,South,184,5.0,9.0,70,0.00,,,0.29,599.000000,,2013-06-15 20:33:00,
2013-06-15 15:43:00,82.0,71.0,-100.00,South,184,5.0,9.0,70,0.00,,,0.29,599.000000,,2013-06-15 20:43:00,
2013-06-15 16:12:00,85.0,70.0,-100.00,SW,219,3.0,9.0,60,0.00,,,0.29,719.000000,,2013-06-15 21:12:00,
2013-06-15 16:22:00,85.0,70.0,-100.00,SW,219,3.0,9.0,60,0.00,,,0.29,719.000000,,2013-06-15 21:22:00,
2013-06-15 16:33:00,85.0,70.0,-100.00,SW,219,3.0,9.0,60,0.00,,,0.29,719.000000,,2013-06-15 21:33:00,
2013-06-15 16:42:00,85.0,70.0,-100.00,SW,219,3.0,9.0,60,0.00,,,0.29,719.000000,,2013-06-15 21:42:00,
2013-06-15 17:11:00,85.0,66.0,-100.00,SSW,200,6.0,14.0,53,0.00,,,0.29,807.000000,,2013-06-15 22:11:00,
2013-06-15 17:22:00,85.0,66.0,-100.00,SSW,200,6.0,14.0,53,0.00,,,0.29,807.000000,,2013-06-15 22:22:00,
2013-06-15 17:32:00,85.0,66.0,-100.00,SSW,200,6.0,14.0,53,0.00,,,0.29,807.000000,,2013-06-15 22:32:00,
2013-06-15 17:42:00,85.0,66.0,-100.00,SSW,200,6.0,14.0,53,0.00,,,0.29,807.000000,,2013-06-15 22:42:00,
2013-06-15 18:11:00,84.0,64.0,-100.00,SSW,204,6.0,12.0,52,0.00,,,-99.99,697.000000,,2013-06-15 23:11:00,
2013-06-15 18:22:00,84.0,64.0,-100.00,SSW,204,6.0,12.0,52,0.00,,,-99.99,697.000000,,2013-06-15 23:22:00,
2013-06-15 18:33:00,84.0,64.0,-100.00,SSW,204,6.0,12.0,52,0.00,,,-99.99,697.000000,,2013-06-15 23:33:00,
2013-06-15 18:42:00,84.0,64.0,-100.00,SSW,204,6.0,12.0,52,0.00,,,-99.99,697.000000,,2013-06-15 23:42:00,
2013-06-15 19:11:00,84.0,66.0,-100.00,South,186,4.0,10.0,54,0.00,,,0.29,494.000000,,2013-06-16 00:11:00,
2013-06-15 19:22:00,84.0,66.0,-100.00,South,186,4.0,10.0,54,0.00,,,0.29,494.000000,,2013-06-16 00:22:00,
2013-06-15 19:33:00,84.0,66.0,-100.00,South,186,4.0,10.0,54,0.00,,,0.29,494.000000,,2013-06-16 00:33:00,
2013-06-15 19:43:00,84.0,66.0,-100.00,South,186,4.0,10.0,54,0.00,,,0.29,494.000000,,2013-06-16 00:43:00,
2013-06-15 20:11:00,79.0,68.0,-100.00,South,175,2.0,7.0,68,0.00,,,0.29,207.000000,,2013-06-16 01:11:00,
2013-06-15 20:22:00,79.0,68.0,-100.00,South,175,2.0,7.0,68,0.00,,,0.29,207.000000,,2013-06-16 01:22:00,
2013-06-15 20:33:00,79.0,68.0,-100.00,South,175,2.0,7.0,68,0.00,,,0.29,207.000000,,2013-06-16 01:33:00,
2013-06-15 20:42:00,79.0,68.0,-100.00,South,175,2.0,7.0,68,0.00,,,0.29,207.000000,,2013-06-16 01:42:00,
2013-06-15 21:12:00,76.0,69.0,-100.00,South,175,0.0,2.0,80,0.00,,,0.29,41.000000,,2013-06-16 02:12:00,
2013-06-15 21:22:00,76.0,69.0,-100.00,South,175,0.0,2.0,80,0.00,,,0.29,41.000000,,2013-06-16 02:22:00,
2013-06-15 21:33:00,76.0,69.0,-100.00,South,175,0.0,2.0,80,0.00,,,0.29,41.000000,,2013-06-16 02:33:00,
2013-06-15 21:43:00,76.0,69.0,-100.00,South,175,0.0,2.0,80,0.00,,,0.29,41.000000,,2013-06-16 02:43:00,
2013-06-15 22:12:00,74.0,66.0,-100.00,South,172,5.0,8.0,75,0.00,,,0.05,1.000000,,2013-06-16 03:12:00,
2013-06-15 22:22:00,74.0,66.0,-100.00,South,172,5.0,8.0,75,0.00,,,0.05,1.000000,,2013-06-16 03:22:00,
2013-06-15 22:33:00,74.0,66.0,-100.00,South,172,5.0,8.0,75,0.00,,,0.05,1.000000,,2013-06-16 03:33:00,
2013-06-15 22:43:00,74.0,66.0,-100.00,South,172,5.0,8.0,75,0.00,,,0.05,1.000000,,2013-06-16 03:43:00,
2013-06-15 23:12:00,72.0,67.0,-100.00,SSW,194,2.0,8.0,83,0.00,,,0.05,0.000000,,2013-06-16 04:12:00,
2013-06-15 23:23:00,72.0,67.0,-100.00,SSW,194,2.0,8.0,83,0.00,,,0.05,0.000000,,2013-06-16 04:23:00,
2013-06-15 23:33:00,72.0,67.0,-100.00,SSW,194,2.0,8.0,83,0.00,,,0.05,0.000000,,2013-06-16 04:33:00,
2013-06-15 23:42:00,72.0,67.0,-100.00,SSW,194,2.0,8.0,83,0.00,,,0.05,0.000000,,2013-06-16 04:42:00,